the time You need

,

KS Athlete ()

Nazionalitá:   --

Sesso:   --

Pettorale:   --

Categoria:   --

Società:   --

POS. ASSOLUTA

°

Gara

Granfondo Straducale

Percorso

201.1 Km - LUNGO

Atleti arrivati

415

DETTAGLIO PRESTAZIONE

POSIZIONE ASSOLUTA °
TEMPO TOTALE
MEDIA Km/h
CATEGORIA
POSIZIONE CATEGORIA °

Intermedi

PRESTAZIONE A CONFRONTO
ASSOLUTO

NOME Giuseppe Sorrenti Mazzocchi
° POSIZIONE ASSOLUTA
TEMPO ASSOLUTO 06:15:25.20
Km/h MEDIA PRIMO ASSOLUTO 32,12 Km/h

PRESTAZIONE A CONFRONTO
CATEGORIA

NOME Giuseppe Sorrenti Mazzocchi
° POSIZIONE CATEGORIA
TEMPO PRIMO DI CATEGORIA 06:15:25.20
Km/h MEDIA PRIMO CATEGORIA 32,12 Km/h


 
Grafico Edizioni Precedenti
Risulta una sola edizione, grafico non disponibile.
 
Pos Anno Cat PosCat Sex PosSex Tempo Media RealTime
 

 
Team
Pos Atleta Cat PosCat Tempo Media RealTime
SORRENTI MAZZOCCHI GIUSEPPE CAD 1 06:15:25.20 32,12 06:15:05.10
KRYS HUBERT JACEK EL 1 06:18:37.60 31,85 06:17:55.00
CARRIERO VALENTINO JUN 1 06:31:04.00 30,84 06:30:24.24
MIRENDA GIANLUCA JUN 2 06:31:04.50 30,84 06:30:46.20
DI SALVO GIUSEPPE JUN 3 06:31:04.70 30,84 06:30:47.20
NANNI ALESSANDRO CAD 2 06:41:53.60 30,01 06:41:47.50
MINUZZO PAOLO CAD 3 06:47:30.10 29,60 06:47:13.13
FANTINI ERSILIO VET 1 06:47:30.60 29,60 06:47:12.60
CALO“ EUPREPIO CAD 4 06:47:31.50 29,59 06:47:10.40
10° SPADA MARCO SEN 1 06:55:12.80 29,05 06:54:59.20
11° DI DONATO MATTEO CAD 5 06:55:13.80 29,05 06:54:50.50
12° SCOLASTICO ANDREA SEN 2 06:57:25.80 28,89 06:56:55.20
13° REBECCHI ELIA EL 2 07:04:30.70 28,41 07:04:04.60
14° BERTUOLA ALESSANDRO EL 3 07:06:58.30 28,25 07:06:47.47
15° BERTOZZI STEFANO JUN 4 07:08:58.30 28,11 07:08:48.48
16° VANZIN LUCA VET 2 07:11:37.20 27,94 07:11:31.31
17° SCHIARATURA DAVIDE EL 4 07:13:01.80 27,85 07:12:43.80
18° ANTONIOLI MIRKO SEN 3 07:13:03.80 27,85 07:12:56.20
19° CIAVATTI ANDREA VET 3 07:13:18.00 27,83 07:13:06.06
20° SALVI LUCA CAD 6 07:17:06.30 27,59 07:16:24.24
21° BIANCO PAOLO VET 4 07:18:57.10 27,47 07:18:45.45
22° BENCI STEFANO VET 5 07:18:57.40 27,47 07:18:50.00
23° CRESCENTINI RENATO VET 6 07:19:14.60 27,46 07:19:07.00
24° BERTOZZI MARCO JUN 5 07:25:46.50 27,05 07:25:45.45
25° RINALDI ILARIA EL 5 07:26:59.60 26,98 07:26:16.60
26° VIANELLI FILIPPO JUN 6 07:27:00.10 26,98 07:26:49.10
27° GUIDI ALBERTO VET 7 07:27:11.00 26,97 07:27:03.03
28° BEZZI MARCO SEN 4 07:36:12.90 26,44 07:35:35.40
29° PONTELLINI ALBERTO VET 8 07:36:18.60 26,43 07:35:30.50
30° ZANNONI FABIAN SEN 5 07:36:19.80 26,43 07:35:44.50
31° MAZZI SIMONE SEN 6 07:36:22.30 26,43 07:35:53.20
32° PESCIAROLI CESARE SEN 7 07:39:42.30 26,23 07:39:02.02
33° FERRICELLI DANIELE SEN 8 07:39:42.70 26,23 07:38:48.48
34° SARTONI FRANCESCO SEN 9 07:39:47.80 26,23 07:38:53.70
35° GARDINI TIZIANO VET 9 07:40:50.70 26,17 07:40:33.10
36° DONATI MAURIZIO GEN 1 07:40:50.80 26,17 07:40:31.80
37° FOGLIETTA RICCARDO CAD 7 07:47:23.90 25,80 07:47:09.50
38° RUBECHINI LUCA VET 10 07:47:24.70 25,80 07:46:53.30
39° CIANFLONE MAURIZIO GEN 2 07:50:50.30 25,61 07:50:50.30
40° RAGAZZINI ANDREA SEN 10 07:51:38.30 25,57 07:51:18.18
41° MAGNANI MARCO SEN 11 07:51:40.10 25,57 07:51:10.10
42° CIOTTI EMANUELE JUN 7 07:51:40.80 25,57 07:51:35.30
43° NICOLETTO GIAN CARLO VET 11 07:51:49.70 25,56 07:50:50.50
44° BIANCHINI PAOLO SEN 12 07:51:57.40 25,55 07:51:44.44
45° NERI FLORINDA DNB 1 07:52:10.40 25,54 07:51:56.30
46° MORASCHINI ALBERTO JUN 8 07:52:37.20 25,52 07:52:37.20
47° SBRIGHI MATTEO SEN 13 07:55:10.10 25,38 07:55:03.03
48° FENATI NELSON VET 12 07:55:12.80 25,38 07:52:50.30
49° CASADEI FABIANO JUN 9 07:55:13.75 25,38 07:55:13.75
50° BRAGAGNA GIANLUCA SEN 14 07:55:13.80 25,38 07:55:04.80
51° BERRETTI ALESSANDRO SEN 15 07:55:24.60 25,37 07:55:06.00
52° BRILLI ROBERTO VET 13 08:00:29.50 25,10 07:59:39.00
53° COLLESEI CRISTIAN SEN 16 08:00:29.70 25,10 08:00:24.24
54° MANDES MATTEO VET 14 08:00:48.30 25,08 07:59:00.30
55° CESARONI FEDERICO VET 15 08:00:48.70 25,08 07:59:02.50
56° GARDINI CRISTIANO SEN 17 08:00:49.40 25,08 08:00:49.40
57° MAZZAFERRI STEFANO GEN 3 08:02:26.90 25,00 08:01:39.00
58° MATALONI EZIO SEN 18 08:05:00.40 24,87 08:04:52.10
59° BOGGI ANDREA VET 16 08:07:56.70 24,72 08:06:02.30
60° MANGINELLA CARMINE SEN 19 08:08:49.20 24,67 08:08:21.00
61° PELLICCIONI MASSIMO VET 17 08:08:50.70 24,67 08:08:25.50
62° RICCI PAOLO JUN 10 08:09:06.90 24,66 08:07:35.20
63° SAVINI CORRADO VET 18 08:09:07.50 24,66 08:06:47.47
64° DELL“ACQUA ANTONIO GEN 4 08:10:11.40 24,60 08:10:01.01
65° LAMANTEA ALBERTO VET 19 08:10:18.40 24,60 08:09:11.11
66° TEODOROSI MASSIMO VET 20 08:10:31.00 24,59 08:09:19.19
67° CENCI LUCA SEN 20 08:10:35.60 24,58 08:09:49.30
68° PAZZAGLINI ALESSANDRO JUN 11 08:10:36.30 24,58 08:09:40.20
69° CAVALLARI PATRIZIO GEN 5 08:10:52.50 24,57 08:10:15.10
70° GUIDOTTI GIANNI VET 21 08:11:13.10 24,55 08:10:16.00
71° SCACCABAROZZI DANILO VET 22 08:11:29.30 24,54 08:10:07.07
72° GIACOMETTI GABRIELE VET 23 08:11:30.20 24,54 08:09:43.00
73° DI MATTEO MASSIMO SEN 21 08:11:30.70 24,54 08:11:30.70
74° ZIGNANI PIERLUIGI GEN 6 08:11:44.00 24,53 08:09:52.52
75° COLOCCI MICHELE CAD 8 08:13:12.20 24,45 08:11:55.55
76° BOVI TOMMASO JUN 12 08:13:13.40 24,45 08:12:01.30
77° BRACHELENTE LORENZO CAD 9 08:13:13.60 24,45 08:12:41.50
78° GIOVAGNINI GIORGIO GEN 7 08:14:37.60 24,38 08:14:31.30
79° MICHEL LAURENT VET 24 08:14:43.60 24,38 08:12:15.30
80° SELCI ADRIANO SGA 1 08:14:44.80 24,38 08:14:40.60
81° COLOMBO MAURO SGA 2 08:14:50.70 24,37 08:14:37.40
82° PACINI VERONICA DNA 1 08:15:01.30 24,36 08:14:58.58
83° COMPAGNUCCI MARIO VET 25 08:15:08.90 24,36 08:13:52.20
84° CAROLI SAIMON VET 26 08:15:24.90 24,34 08:14:43.60
85° NICHELE GIUSEPPE GEN 8 08:15:49.40 24,32 08:14:02.30
86° PRATI MARCO SEN 22 08:16:28.50 24,29 08:15:44.00
87° ZANGHERI LORENA DNB 2 08:16:33.50 24,29 08:16:25.20
88° SPITONI FRANCESCO JUN 13 08:16:34.60 24,29 08:16:06.40
89° FERRIERO LUIGI JUN 14 08:16:36.90 24,29 08:16:26.90
90° FIUMANA DAVIDE VET 27 08:18:08.20 24,21 08:17:33.33
91° BETTI VITTORIO VET 28 08:22:49.70 23,98 08:22:26.10
92° LIERA NICOLA VET 29 08:22:50.30 23,98 08:22:34.34
93° MONTALTI FABIO GEN 9 08:23:11.00 23,97 08:22:56.56
94° DE PETRA MARCO SEN 23 08:23:11.60 23,97 08:22:46.30
95° TINTI ROBERTO VET 30 08:25:22.50 23,86 08:24:38.10
96° REGA CARMINE VET 31 08:25:29.40 23,86 08:23:43.10
97° BATTISTONI PARIDE VET 32 08:26:17.20 23,82 08:24:03.03
98° LENZI CRISTIAN VET 33 08:26:21.30 23,82 08:25:18.18
99° TAMBURINI MAURIZIO VET 34 08:26:48.60 23,80 08:26:26.20
100° CAPUTI LUIGI JUN 15 08:28:03.50 23,74 08:26:42.10
 

ELENCO GARE VISUALIZZAZIONE ESTESA

Data
Evento
Posizione
Punti
Km
Sport